This is the latest recevied weather packets stored in our database for station/object KN4PLO. If no packets are shown the sender has not sent any weather packets the latest 1 day(s).
| Time | Temp. | Humidity | Pressure | Rain* | Wind** | Luminosity | Snow |
|---|---|---|---|---|---|---|---|
| 1778017044 | 23.89° C | 100% | - | 0 mm | 3.58 m/s, 225° | - | - |
| 1778016773 | 23.89° C | 100% | - | 0 mm | 0.89 m/s, 200° | - | - |
| 1778016473 | 23.89° C | 100% | - | 0 mm | 4.02 m/s, 255° | - | - |
| 1778016445 | 23.89° C | 100% | - | 0 mm | 5.81 m/s, 206° | - | - |
| 1778016173 | 23.89° C | 100% | - | 0 mm | 1.79 m/s, 164° | - | - |
| 1778015872 | 23.89° C | 100% | - | 0 mm | 5.36 m/s, 232° | - | - |
| 1778015843 | 23.89° C | 100% | - | 0 mm | 4.02 m/s, 242° | - | - |
| 1778015572 | 24.44° C | 100% | - | 0 mm | 4.92 m/s, 209° | - | - |
| 1778015272 | 23.89° C | 100% | - | 0 mm | 3.58 m/s, 187° | - | - |
| 1778015244 | 23.89° C | 100% | - | 0 mm | 2.24 m/s, 150° | - | - |
| 1778014972 | 23.89° C | 100% | - | 0 mm | 3.13 m/s, 234° | - | - |
| 1778014672 | 23.89° C | 100% | - | 0 mm | 3.58 m/s, 205° | - | - |
| 1778014645 | 23.89° C | 100% | - | 0 mm | 4.47 m/s, 234° | - | - |
| 1778014384 | 23.89° C | 100% | - | 0 mm | 4.47 m/s, 244° | - | - |
| 1778014072 | 23.89° C | 100% | - | 0 mm | 6.71 m/s, 214° | - | - |
| 1778014044 | 23.89° C | 100% | - | 0 mm | 5.81 m/s, 221° | - | - |
| 1778013772 | 23.89° C | 100% | - | 0 mm | 4.92 m/s, 267° | - | - |
| 1778013472 | 23.89° C | 100% | - | 0 mm | 1.79 m/s, 234° | - | - |
| 1778013445 | 23.89° C | 100% | - | 0 mm | 6.71 m/s, 160° | - | - |
| 1778013172 | 23.89° C | 100% | - | 0 mm | 5.36 m/s, 245° | - | - |
| 1778012845 | 23.89° C | 100% | - | 0 mm | 7.15 m/s, 164° | - | - |
| 1778012572 | 23.89° C | 100% | - | 0 mm | 9.83 m/s, 202° | - | - |
| 1778012272 | 24.44° C | 100% | - | 0 mm | 8.05 m/s, 217° | - | - |
| 1778012247 | 24.44° C | 100% | - | 0 mm | 6.71 m/s, 246° | - | - |
| 1778011972 | 23.89° C | 100% | - | 0 mm | 1.79 m/s, 209° | - | - |
* Rain latest hour (hover to see other rain measurements)
** Current wind speed in m/s (hover to see current wind gust speed)